Location: Grange Verzio
(44.5000°N, 6.9833°E)
Time: 16:56:12
(UTC+00:00)

Cosmos 1461 - Pass Details

Date: 01 February 2023
Orbit: 492 x 643 km, 65.0° (Epoch: 29 March)

Event Time Altitude Azimuth Distance (km) Brightness Sun altitude
Rises 17:27:46 0° 177° (S) 2,711 6.5 -8.7°
Reaches altitude 10° 17:30:19 10° 161° (SSE) 1,853 5.5 -9.2°
Maximum altitude 17:33:29 21° 111° (ESE) 1,324 4.3 -9.7°
Enters shadow 17:35:55 14° 71° (ENE) 1,696 4.6 -10.2°
